Weather History for Selawik, AK

Change the Weather History Date:

Monday, October 1, 2012

  Actual Average Record
Temperature  
Mean Temperature 32 °F -  
Max Temperature 37 °F 36 °F 55 °F (2003)
Min Temperature 28 °F 27 °F 21 °F (2008)
Degree Days  
Heating Degree Days 32    
Moisture  
Dew Point 27 °F    
Average Humidity 80    
Maximum Humidity 87    
Minimum Humidity 65    
Precipitation  
Precipitation 0.00 in - - ()
Sea Level Pressure  
Sea Level Pressure 29.99 in    
Wind  
Wind Speed 12 mph (ESE)    
Max Wind Speed 22 mph    
Max Gust Speed 30 mph    
Visibility 10 miles    
Events      
Averages and records for this station are not official NWS values.
T = Trace of Precipitation, MM = Missing Value Source: NWS Daily Summary

Daily Weather History Graph

Daily Weather History Graph

Search for Another Location

Airport:

Trip Planner

Search our weather history database for the weather conditions in past years. The results will help you decide how hot, cold, wet, or windy it might be!

Date:

Astronomy

Oct. 01, 2012 Rise Set
Actual Time 8:53 AM AKDT 8:03 PM AKDT
Civil Twilight 8:01 AM AKDT 8:55 PM AKDT
Nautical Twilight 6:59 AM AKDT 9:56 PM AKDT
Astronomical Twilight 5:50 AM AKDT 11:04 PM AKDT
Moon 7:30 PM AKDT (10/1) 11:45 AM AKDT (10/1)
Length of Visible Light 12h 53m
Length of Day
11h 09m
Full, 97% of the Moon is Illuminated
Oct 1
Full
Oct 7
Last Quarter
Oct 15
New
Oct 21
First Quarter
Oct 29
Full

Hourly Weather History & Observations

Time (AKDT) Temp. Windchill Dew Point Humidity Pressure Visibility Wind Dir Wind Speed Gust Speed Precip Events Conditions
12:16 AM 35.6 °F 29.2 °F 30.2 °F 81% 30.03 in 10.0 mi SSE 8.1 mph - N/A   Overcast
12:36 AM 33.8 °F 27.0 °F 28.4 °F 81% 30.03 in 10.0 mi SSE 8.1 mph - N/A   Mostly Cloudy
12:56 AM 32.0 °F 24.8 °F 28.4 °F 87% 30.03 in 10.0 mi SSE 8.1 mph - N/A   Mostly Cloudy
1:16 AM 32.0 °F 26.4 °F 26.6 °F 80% 30.03 in 10.0 mi SSE 5.8 mph - N/A   Mostly Cloudy
1:56 AM 32.0 °F 24.2 °F 28.4 °F 87% 30.03 in 10.0 mi ESE 9.2 mph - N/A   Scattered Clouds
2:16 AM 30.2 °F 23.4 °F 26.6 °F 86% 30.04 in 10.0 mi ESE 6.9 mph - N/A   Overcast
2:36 AM 30.2 °F 21.3 °F 26.6 °F 86% 30.04 in 10.0 mi ESE 10.4 mph - N/A   Mostly Cloudy
2:56 AM 30.2 °F 21.3 °F 26.6 °F 86% 30.03 in 10.0 mi ESE 10.4 mph - N/A   Scattered Clouds
3:16 AM 30.2 °F 21.3 °F 26.6 °F 86% 30.03 in 10.0 mi ESE 10.4 mph - N/A   Partly Cloudy
3:36 AM 30.2 °F 20.8 °F 26.6 °F 86% 30.04 in 10.0 mi ESE 11.5 mph - N/A   Clear
3:56 AM 30.2 °F 21.9 °F 24.8 °F 80% 30.04 in 10.0 mi ESE 9.2 mph - N/A   Clear
4:16 AM 30.2 °F 20.8 °F 24.8 °F 80% 30.03 in 10.0 mi ESE 11.5 mph - N/A   Clear
4:36 AM 30.2 °F 21.3 °F 24.8 °F 80% 30.03 in 10.0 mi ESE 10.4 mph - N/A   Clear
4:56 AM 30.2 °F 21.3 °F 24.8 °F 80% 30.04 in 10.0 mi ESE 10.4 mph - N/A   Clear
5:16 AM 28.4 °F 19.7 °F 24.8 °F 86% 30.04 in 10.0 mi ESE 9.2 mph - N/A   Clear
5:36 AM 28.4 °F 19.1 °F 24.8 °F 86% 30.04 in 10.0 mi ESE 10.4 mph 17.3 mph N/A   Clear
5:56 AM 28.4 °F 19.1 °F 24.8 °F 86% 30.04 in 10.0 mi ESE 10.4 mph - N/A   Clear
6:16 AM 28.4 °F 19.1 °F 24.8 °F 86% 30.04 in 10.0 mi ESE 10.4 mph - N/A   Clear
6:36 AM 28.4 °F 18.0 °F 24.8 °F 86% 30.04 in 10.0 mi ESE 12.7 mph 17.3 mph N/A   Clear
6:56 AM 28.4 °F 18.0 °F 24.8 °F 86% 30.04 in 10.0 mi East 12.7 mph - N/A   Clear
7:16 AM 28.4 °F 19.1 °F 24.8 °F 86% 30.04 in 10.0 mi East 10.4 mph 16.1 mph N/A   Clear
7:36 AM 28.4 °F 19.7 °F 24.8 °F 86% 30.04 in 10.0 mi East 9.2 mph - N/A   Clear
7:56 AM 28.4 °F 20.4 °F 23.0 °F 80% 30.04 in 10.0 mi East 8.1 mph - N/A   Clear
8:16 AM 28.4 °F 18.5 °F 24.8 °F 86% 30.04 in 10.0 mi ESE 11.5 mph - N/A   Clear
8:36 AM 28.4 °F 18.5 °F 23.0 °F 80% 30.04 in 10.0 mi ESE 11.5 mph - N/A   Clear
8:56 AM 28.4 °F 17.5 °F 24.8 °F 86% 30.04 in 10.0 mi ESE 13.8 mph 17.3 mph N/A   Clear
9:16 AM 28.4 °F 19.1 °F 24.8 °F 86% 30.03 in 10.0 mi ESE 10.4 mph 16.1 mph N/A   Clear
9:36 AM 28.4 °F 21.2 °F 24.8 °F 86% 30.03 in 10.0 mi ESE 6.9 mph - N/A   Clear
9:56 AM 28.4 °F 22.2 °F 23.0 °F 80% 30.04 in 10.0 mi ESE 5.8 mph - N/A   Clear
10:16 AM 28.4 °F 19.7 °F 24.8 °F 86% 30.03 in 10.0 mi East 9.2 mph - N/A   Clear
10:36 AM 28.4 °F 19.7 °F 24.8 °F 86% 30.03 in 10.0 mi ESE 9.2 mph - N/A   Clear
10:56 AM 30.2 °F 21.9 °F 24.8 °F 80% 30.03 in 10.0 mi ESE 9.2 mph 17.3 mph N/A   Clear
11:16 AM 30.2 °F 19.8 °F 24.8 °F 80% 30.03 in 10.0 mi ESE 13.8 mph 17.3 mph N/A   Clear
11:56 AM 32.0 °F 20.8 °F 24.8 °F 75% 30.02 in 10.0 mi ESE 17.3 mph 24.2 mph N/A   Clear
12:16 PM 33.8 °F 23.2 °F 24.8 °F 70% 30.02 in 10.0 mi East 17.3 mph 23.0 mph N/A   Clear
12:36 PM 33.8 °F 22.8 °F 26.6 °F 75% 30.01 in 10.0 mi East 18.4 mph 24.2 mph N/A   Clear
12:56 PM 33.8 °F 22.5 °F 26.6 °F 75% 30.00 in 10.0 mi East 19.6 mph 25.3 mph N/A   Clear
1:16 PM 33.8 °F 21.9 °F 26.6 °F 75% 30.00 in 10.0 mi East 21.9 mph 27.6 mph N/A   Clear
1:36 PM 35.6 °F 24.2 °F 26.6 °F 70% 29.98 in 10.0 mi East 21.9 mph 29.9 mph N/A   Clear
1:56 PM 35.6 °F 24.2 °F 26.6 °F 70% 29.98 in 10.0 mi East 21.9 mph 27.6 mph N/A   Clear
2:16 PM 35.6 °F 24.8 °F 26.6 °F 70% 29.98 in 10.0 mi ESE 19.6 mph 27.6 mph N/A   Clear
2:36 PM 35.6 °F 24.5 °F 26.6 °F 70% 29.97 in 10.0 mi ESE 20.7 mph 27.6 mph N/A   Clear
2:56 PM 35.6 °F 24.8 °F 26.6 °F 70% 29.97 in 10.0 mi ESE 19.6 mph 26.5 mph N/A   Clear
3:16 PM 35.6 °F 24.5 °F 26.6 °F 70% 29.98 in 10.0 mi East 20.7 mph 25.3 mph N/A   Scattered Clouds
3:36 PM 37.4 °F 28.2 °F 26.6 °F 65% 29.96 in 10.0 mi ESE 16.1 mph 28.8 mph N/A   Mostly Cloudy
3:56 PM 37.4 °F 27.8 °F 26.6 °F 65% 29.96 in 10.0 mi ESE 17.3 mph 24.2 mph N/A   Mostly Cloudy
4:16 PM 37.4 °F 27.8 °F 26.6 °F 65% 29.96 in 10.0 mi ESE 17.3 mph 25.3 mph N/A   Mostly Cloudy
4:36 PM 37.4 °F 27.5 °F 26.6 °F 65% 29.96 in 10.0 mi ESE 18.4 mph 25.3 mph N/A   Mostly Cloudy
4:56 PM 37.4 °F 27.5 °F 26.6 °F 65% 29.95 in 10.0 mi ESE 18.4 mph 25.3 mph N/A   Overcast
5:16 PM 37.4 °F 28.5 °F 28.4 °F 70% 29.95 in 10.0 mi ESE 15.0 mph - N/A   Mostly Cloudy
5:36 PM 37.4 °F 26.9 °F 28.4 °F 70% 29.94 in 10.0 mi ESE 20.7 mph 25.3 mph N/A   Overcast
5:56 PM 37.4 °F 27.2 °F 26.6 °F 65% 29.94 in 10.0 mi ESE 19.6 mph 25.3 mph N/A   Overcast
6:16 PM 37.4 °F 28.2 °F 28.4 °F 70% 29.95 in 10.0 mi ESE 16.1 mph 23.0 mph N/A   Mostly Cloudy
6:36 PM 37.4 °F 28.5 °F 28.4 °F 70% 29.95 in 10.0 mi ESE 15.0 mph 20.7 mph N/A   Overcast
6:56 PM 35.6 °F 25.5 °F 28.4 °F 75% 29.95 in 10.0 mi ESE 17.3 mph 26.5 mph N/A   Overcast
7:16 PM 35.6 °F 25.9 °F 30.2 °F 81% 29.95 in 10.0 mi East 16.1 mph - N/A   Overcast
7:36 PM 35.6 °F 26.2 °F 30.2 °F 81% 29.95 in 10.0 mi ESE 15.0 mph 23.0 mph N/A   Overcast
8:16 PM 33.8 °F 23.9 °F 30.2 °F 87% 29.94 in 9.0 mi ESE 15.0 mph 20.7 mph N/A   Overcast
8:36 PM 33.8 °F 24.3 °F 30.2 °F 87% 29.94 in 10.0 mi ESE 13.8 mph 19.6 mph N/A   Overcast
8:56 PM 33.8 °F 23.9 °F 30.2 °F 87% 29.94 in 10.0 mi ESE 15.0 mph 20.7 mph N/A   Overcast
9:16 PM 33.8 °F 23.9 °F 30.2 °F 87% 29.94 in 10.0 mi ESE 15.0 mph 19.6 mph N/A   Overcast
9:36 PM 33.8 °F 24.8 °F 30.2 °F 87% 29.93 in 7.0 mi ESE 12.7 mph 17.3 mph N/A   Overcast
9:56 PM 33.8 °F 24.3 °F 30.2 °F 87% 29.93 in 7.0 mi East 13.8 mph 19.6 mph N/A   Overcast
10:16 PM 33.8 °F 23.5 °F 30.2 °F 87% 29.92 in 5.0 mi East 16.1 mph 20.7 mph N/A   Overcast
10:36 PM 33.8 °F 23.9 °F 30.2 °F 87% 29.92 in 7.0 mi East 15.0 mph - N/A   Overcast
10:56 PM 33.8 °F 23.2 °F 30.2 °F 87% 29.92 in 8.0 mi East 17.3 mph - N/A   Overcast
11:16 PM 33.8 °F 23.2 °F 30.2 °F 87% 29.92 in 10.0 mi East 17.3 mph - N/A   Overcast
11:36 PM 33.8 °F 23.9 °F 30.2 °F 87% 29.92 in 10.0 mi East 15.0 mph - N/A   Overcast
11:56 PM 35.6 °F 26.2 °F 30.2 °F 81% 29.92 in 10.0 mi East 15.0 mph 20.7 mph N/A   Overcast